Weather History for Vigo, Spain

Change the Weather History Date:

Saturday, May 18, 2013

  Actual Average Record
Temperature  
Mean Temperature 50 °F -  
Max Temperature 56 °F 68 °F 84 °F (2004)
Min Temperature 44 °F 52 °F 39 °F (2005)
Degree Days  
Heating Degree Days 15    
Moisture  
Dew Point 42 °F    
Average Humidity 79    
Maximum Humidity 93    
Minimum Humidity 52    
Precipitation  
Precipitation 0.00 in 0.13 in - ()
Sea Level Pressure  
Sea Level Pressure 29.90 in    
Wind  
Wind Speed 6 mph ()    
Max Wind Speed 15 mph    
Max Gust Speed 26 mph    
Visibility 6.6 miles    
Events      
Averages and records for this station are not official NWS values.
T = Trace of Precipitation, MM = Missing Value Source: Averaged Metar Reports

Daily Weather History Graph

Daily Weather History Graph

Search for Another Location

Airport:

Trip Planner

Search our weather history database for the weather conditions in past years. The results will help you decide how hot, cold, wet, or windy it might be!

Date:

Astronomy

May. 18, 2013 Rise Set
Actual Time 7:10 AM CEST 9:51 PM CEST
Civil Twilight 6:38 AM CEST 10:24 PM CEST
Nautical Twilight 5:57 AM CEST 11:05 PM CEST
Astronomical Twilight 5:11 AM CEST 11:52 PM CEST
Moon 2:34 PM CEST (5/18) 3:04 AM CEST (5/18)
Length of Visible Light 15h 46m
Length of Day
14h 41m
First Quarter, 52% of the Moon is Illuminated
May 18
First Quarter
May 25
Full
May 31
Last Quarter
Jun 8
New
Jun 16
First Quarter

Hourly Weather History & Observations

Time (CEST) Temp. Windchill Dew Point Humidity Pressure Visibility Wind Dir Wind Speed Gust Speed Precip Events Conditions
12:00 AM 44.6 °F 39.7 °F 41.0 °F 87% 29.74 in 6.2 mi North 9.2 mph - N/A   Partly Cloudy
12:30 AM 44.6 °F 40.7 °F 41.0 °F 87% 29.77 in 6.2 mi North 6.9 mph - N/A   Partly Cloudy
1:00 AM 42.8 °F 39.3 °F 41.0 °F 93% 29.77 in 6.2 mi NNE 5.8 mph - N/A   Scattered Clouds
1:30 AM 42.8 °F 40.1 °F 41.0 °F 93% 29.77 in 6.2 mi NNE 4.6 mph - N/A   Scattered Clouds
2:00 AM 45 °F - 43 °F 88% 29.81 in 9 mi North 2.3 mph - -   Partly Cloudy
2:00 AM 42.8 °F 40.1 °F 41.0 °F 93% 29.77 in 6.2 mi North 4.6 mph - N/A   Scattered Clouds
2:30 AM 42.8 °F 39.3 °F 41.0 °F 93% 29.77 in 6.2 mi North 5.8 mph - N/A   Scattered Clouds
3:00 AM 42.8 °F 40.1 °F 41.0 °F 93% 29.77 in 6.2 mi NNE 4.6 mph - N/A   Scattered Clouds
3:30 AM 44.6 °F 43.1 °F 41.0 °F 87% 29.80 in 6.2 mi WNW 3.5 mph - N/A   Scattered Clouds
4:00 AM 42.8 °F 40.1 °F 41.0 °F 93% 29.80 in 6.2 mi NW 4.6 mph - N/A   Scattered Clouds
4:30 AM 42.8 °F 40.1 °F 41.0 °F 93% 29.80 in 6.2 mi WNW 4.6 mph - N/A   Scattered Clouds
5:00 AM 44.6 °F 42.2 °F 41.0 °F 87% 29.80 in 6.2 mi NW 4.6 mph - N/A   Scattered Clouds
5:30 AM 44.6 °F 42.2 °F 41.0 °F 87% 29.80 in 6.2 mi NW 4.6 mph - N/A   Scattered Clouds
6:00 AM 44.6 °F 42.2 °F 41.0 °F 87% 29.80 in 6.2 mi NW 4.6 mph - N/A   Scattered Clouds
6:30 AM 44.6 °F - 42.8 °F 93% 29.83 in 6.2 mi Variable 2.3 mph - N/A   Scattered Clouds
7:00 AM 44.6 °F - 41.0 °F 87% 29.83 in 6.2 mi Variable 2.3 mph - N/A   Partly Cloudy
7:30 AM 44.6 °F 40.7 °F 41.0 °F 87% 29.83 in 6.2 mi NNW 6.9 mph - N/A   Mostly Cloudy
8:00 AM 47 °F - 44 °F 83% 29.87 in 9 mi North 4.6 mph - -   Scattered Clouds
8:00 AM 44.6 °F 42.2 °F 42.8 °F 93% 29.83 in 6.2 mi NNW 4.6 mph - N/A   Partly Cloudy
8:30 AM 44.6 °F 41.4 °F 41.0 °F 87% 29.86 in 6.2 mi Variable 5.8 mph - N/A   Partly Cloudy
9:00 AM 44.6 °F - 42.8 °F 93% 29.86 in 6.2 mi Calm Calm - N/A   Scattered Clouds
9:30 AM 46.4 °F 43.5 °F 42.8 °F 87% 29.86 in 6.2 mi North 5.8 mph - N/A   Scattered Clouds
10:00 AM 48.2 °F - 44.6 °F 87% 29.89 in 6.2 mi Variable 2.3 mph - N/A   Scattered Clouds
10:30 AM 48.2 °F - 44.6 °F 87% 29.89 in 6.2 mi NNE 3.5 mph - N/A   Scattered Clouds
11:00 AM 50.0 °F - 42.8 °F 76% 29.89 in 6.2 mi WNW 6.9 mph - N/A   Scattered Clouds
11:30 AM 51.8 °F - 42.8 °F 71% 29.92 in 6.2 mi North 10.4 mph - N/A   Scattered Clouds
12:00 PM 51.8 °F - 42.8 °F 71% 29.92 in 6.2 mi NNE 6.9 mph - N/A   Scattered Clouds
12:30 PM 50.0 °F - 42.8 °F 76% 29.92 in 6.2 mi NNE 5.8 mph - N/A   Scattered Clouds
1:00 PM 50.0 °F - 41.0 °F 71% 29.95 in 6.2 mi North 11.5 mph - N/A   Scattered Clouds
1:30 PM 50.0 °F - 39.2 °F 66% 29.95 in 6.2 mi NW 9.2 mph - N/A   Scattered Clouds
2:00 PM 53 °F - 42 °F 55% 29.95 in 12 mi NW 12.7 mph - -   Mostly Cloudy
2:00 PM 51.8 °F - 41.0 °F 67% 29.95 in 6.2 mi NW 12.7 mph - N/A   Mostly Cloudy
2:30 PM 51.8 °F - 42.8 °F 71% 29.95 in 6.2 mi West 10.4 mph - N/A   Mostly Cloudy
3:00 PM 51.8 °F - 42.8 °F 71% 29.95 in 6.2 mi WNW 6.9 mph - N/A   Mostly Cloudy
3:30 PM 53.6 °F - 42.8 °F 67% 29.95 in 6.2 mi West 12.7 mph - N/A   Scattered Clouds
4:00 PM 53.6 °F - 42.8 °F 67% 29.95 in 6.2 mi West 15.0 mph 26.5 mph N/A   Scattered Clouds
4:30 PM 53.6 °F - 44.6 °F 72% 29.95 in 6.2 mi WNW 13.8 mph - N/A   Scattered Clouds
5:00 PM 53.6 °F - 42.8 °F 67% 29.95 in 6.2 mi WNW 11.5 mph 23.0 mph N/A   Scattered Clouds
5:30 PM 53.6 °F - 41.0 °F 62% 29.95 in 6.2 mi WNW 13.8 mph - N/A   Scattered Clouds
6:00 PM 53.6 °F - 41.0 °F 62% 29.98 in 6.2 mi NW 15.0 mph - N/A   Scattered Clouds
6:30 PM 53.6 °F - 42.8 °F 67% 29.98 in 6.2 mi WNW 13.8 mph - N/A   Scattered Clouds
7:00 PM 53.6 °F - 42.8 °F 67% 29.98 in 6.2 mi West 10.4 mph - N/A   Scattered Clouds
7:30 PM 51.8 °F - 42.8 °F 71% 29.98 in 6.2 mi WNW 11.5 mph 24.2 mph N/A   Scattered Clouds
8:00 PM 53 °F - 40 °F 52% 30.01 in 16 mi West 15.0 mph - -   Partly Cloudy
8:00 PM 51.8 °F - 41.0 °F 67% 30.01 in 6.2 mi WNW 15.0 mph - N/A   Scattered Clouds
9:00 PM 50.0 °F - 42.8 °F 76% 30.01 in 6.2 mi WNW 10.4 mph - N/A   Scattered Clouds
9:30 PM 50.0 °F - 42.8 °F 76% 30.04 in 6.2 mi WNW 8.1 mph - N/A   Scattered Clouds
10:00 PM 48.2 °F - 42.8 °F 82% 30.04 in 6.2 mi WNW 8.1 mph - N/A   Scattered Clouds
10:30 PM 48.2 °F - 42.8 °F 82% 30.04 in 6.2 mi WNW 6.9 mph - N/A   Scattered Clouds
11:00 PM 48.2 °F - 41.0 °F 76% 30.06 in 6.2 mi WNW 3.5 mph - N/A   Scattered Clouds
11:30 PM 46.4 °F - 41.0 °F 81% 30.06 in 6.2 mi Variable 2.3 mph - N/A   Scattered Clouds